RYR2409 EDJA-LEAL

Flight info

Callsign RYR2409
Flight time 2h 20m
Altitude 37000
Route UMTEX1A UMTEX Y100 TRA DCT LUTIX DCT BENOT DCT NEMOS DCT GEVEA DCT INCUS DCT BALSI DCT RETNO DCT TUPOX DCT MTG DCT DIVKO DCT VATIR DCT PIVUS DCT SULID DCT SISMO DCT AKAMU DCT ADX DCT OKITI DCT IBEBA M603 GERVU
Aircraft B38M/M-SDE1FGHILORVWXY/HB1

Departure

Time 2026-05-07 16:22
Airport Memmingen Allgau Airport (EDJA)

Arrival

Time 2026-05-07 18:42
Airport Alicante-Elche Miguel Hernández Airport (LEAL)
Time Latitude Longitude Altitude Speed Heading
2026-05-07 15:57 47.98890 10.23329 2079 ft 0 kts 49°
2026-05-07 16:11 47.98886 10.23321 2079 ft 3 kts 49°
2026-05-07 16:12 47.98872 10.23302 2079 ft 3 kts 18°
2026-05-07 16:12 47.98853 10.23295 2079 ft 3 kts 34°
2026-05-07 16:12 47.98848 10.23289 2079 ft 0 kts 50°
2026-05-07 16:14 47.98864 10.23326 2079 ft 9 kts 66°
2026-05-07 16:14 47.98863 10.23346 2079 ft 0 kts 98°
2026-05-07 16:14 47.98861 10.23366 2079 ft 4 kts 98°
2026-05-07 16:15 47.98862 10.23425 2079 ft 6 kts 71°
2026-05-07 16:15 47.98882 10.23507 2079 ft 12 kts 70°
2026-05-07 16:15 47.98911 10.23632 2079 ft 12 kts 74°
2026-05-07 16:15 47.98903 10.23696 2079 ft 8 kts 136°
2026-05-07 16:16 47.98892 10.23711 2079 ft 0 kts 137°
2026-05-07 16:18 47.98890 10.23714 2079 ft 2 kts 137°
2026-05-07 16:18 47.98866 10.23743 2079 ft 5 kts 145°
2026-05-07 16:18 47.98828 10.23792 2078 ft 9 kts 114°
2026-05-07 16:19 47.98861 10.23897 2077 ft 14 kts 59°
2026-05-07 16:19 47.98930 10.24071 2071 ft 24 kts 62°
2026-05-07 16:19 47.99028 10.24321 2068 ft 31 kts 57°
2026-05-07 16:19 47.99151 10.24622 2067 ft 37 kts 56°
2026-05-07 16:20 47.99287 10.24975 2064 ft 39 kts 59°
2026-05-07 16:20 47.99418 10.25300 2058 ft 34 kts 57°
2026-05-07 16:20 47.99524 10.25555 2057 ft 18 kts 46°
2026-05-07 16:20 47.99553 10.25624 2056 ft 1 kts 141°
2026-05-07 16:21 47.99548 10.25616 2056 ft 1 kts 225°
2026-05-07 16:21 47.99501 10.25507 2057 ft 34 kts 238°
2026-05-07 16:21 47.99227 10.24815 2067 ft 121 kts 239°
2026-05-07 16:21 47.98661 10.23378 2262 ft 189 kts 239°
2026-05-07 16:22 47.97853 10.21653 3194 ft 220 kts 243°
2026-05-07 16:22 47.97197 10.19511 4382 ft 233 kts 245°
2026-05-07 16:22 47.96337 10.17411 5696 ft 246 kts 238°
2026-05-07 16:22 47.95421 10.15172 6958 ft 255 kts 241°
2026-05-07 16:23 47.94507 10.12858 8248 ft 260 kts 239°
2026-05-07 16:23 47.93587 10.10534 9503 ft 265 kts 245°
2026-05-07 16:23 47.92902 10.07931 10589 ft 276 kts 250°
2026-05-07 16:23 47.92255 10.05160 11379 ft 294 kts 251°
2026-05-07 16:24 47.91619 10.02147 12241 ft 310 kts 254°
2026-05-07 16:24 47.91196 9.98938 13124 ft 325 kts 259°
2026-05-07 16:24 47.90754 9.95634 13980 ft 338 kts 256°
2026-05-07 16:24 47.90259 9.92130 14821 ft 349 kts 258°
2026-05-07 16:25 47.89794 9.88596 15492 ft 357 kts 257°
2026-05-07 16:25 47.89229 9.84918 15759 ft 364 kts 256°
2026-05-07 16:25 47.88529 9.81327 15870 ft 363 kts 248°
2026-05-07 16:25 47.87584 9.77836 15943 ft 362 kts 249°
2026-05-07 16:26 47.86756 9.74268 15987 ft 362 kts 249°
2026-05-07 16:26 47.85839 9.70800 15997 ft 362 kts 248°
2026-05-07 16:26 47.84990 9.67260 16004 ft 362 kts 251°
2026-05-07 16:26 47.84266 9.63701 16010 ft 362 kts 253°
2026-05-07 16:27 47.83569 9.60070 16013 ft 362 kts 253°
2026-05-07 16:27 47.83003 9.56464 16014 ft 363 kts 259°
2026-05-07 16:27 47.82612 9.52725 16022 ft 363 kts 258°
2026-05-07 16:27 47.82136 9.49059 16021 ft 363 kts 258°
2026-05-07 16:28 47.81708 9.45327 16022 ft 363 kts 259°
2026-05-07 16:28 47.81264 9.41681 16018 ft 362 kts 258°
2026-05-07 16:28 47.80823 9.38052 16387 ft 347 kts 259°
2026-05-07 16:28 47.80404 9.34590 17476 ft 329 kts 258°
2026-05-07 16:29 47.80007 9.31355 18858 ft 314 kts 258°
2026-05-07 16:29 47.79622 9.28190 20026 ft 309 kts 258°
2026-05-07 16:29 47.79231 9.25022 20895 ft 312 kts 258°
2026-05-07 16:29 47.78842 9.21845 21710 ft 316 kts 258°
2026-05-07 16:30 47.78442 9.18605 22518 ft 320 kts 258°
2026-05-07 16:30 47.78044 9.15351 23319 ft 324 kts 258°
2026-05-07 16:30 47.77629 9.12028 24037 ft 327 kts 258°
2026-05-07 16:30 47.77221 9.08699 24715 ft 330 kts 257°
2026-05-07 16:31 47.76796 9.05306 25417 ft 332 kts 258°
2026-05-07 16:31 47.76373 9.01918 26102 ft 335 kts 257°
2026-05-07 16:31 47.75952 8.98537 26777 ft 337 kts 257°
2026-05-07 16:31 47.75522 8.95085 27457 ft 340 kts 257°
2026-05-07 16:32 47.75081 8.91610 28141 ft 342 kts 257°
2026-05-07 16:32 47.74643 8.88112 28810 ft 345 kts 257°
2026-05-07 16:32 47.74202 8.84631 29459 ft 348 kts 257°
2026-05-07 16:32 47.73754 8.81072 30097 ft 350 kts 257°
2026-05-07 16:33 47.73296 8.77492 30614 ft 353 kts 257°
2026-05-07 16:33 47.72840 8.73886 31135 ft 356 kts 257°
2026-05-07 16:33 47.72380 8.70297 31641 ft 359 kts 257°
2026-05-07 16:33 47.71912 8.66621 32141 ft 362 kts 257°
2026-05-07 16:34 47.71441 8.62955 32641 ft 365 kts 257°
2026-05-07 16:34 47.70958 8.59210 33115 ft 368 kts 257°
2026-05-07 16:34 47.70476 8.55442 33596 ft 371 kts 257°
2026-05-07 16:34 47.69984 8.51681 34056 ft 374 kts 257°
2026-05-07 16:35 47.69412 8.47874 34417 ft 377 kts 249°
2026-05-07 16:35 47.68362 8.44347 34777 ft 378 kts 242°
2026-05-07 16:35 47.67107 8.40873 35131 ft 381 kts 240°
2026-05-07 16:35 47.65802 8.37462 35479 ft 385 kts 239°
2026-05-07 16:36 47.64370 8.34117 35830 ft 388 kts 233°
2026-05-07 16:36 47.62742 8.30897 36160 ft 391 kts 234°
2026-05-07 16:36 47.61164 8.27560 36496 ft 394 kts 234°
2026-05-07 16:36 47.59565 8.24312 36755 ft 393 kts 234°
2026-05-07 16:37 47.57959 8.21004 36882 ft 395 kts 234°
2026-05-07 16:37 47.54713 8.14334 36932 ft 403 kts 234°
2026-05-07 16:38 47.51448 8.07644 36927 ft 400 kts 234°
2026-05-07 16:38 47.48177 8.00967 36933 ft 399 kts 234°
2026-05-07 16:39 47.44898 7.94281 36954 ft 412 kts 234°
2026-05-07 16:39 47.43194 7.90812 36974 ft 423 kts 234°
2026-05-07 16:39 47.41435 7.87235 36971 ft 434 kts 234°
2026-05-07 16:39 47.39629 7.83576 36958 ft 445 kts 234°
2026-05-07 16:40 47.37813 7.79887 36959 ft 455 kts 234°
2026-05-07 16:40 47.34011 7.72194 36952 ft 463 kts 234°
2026-05-07 16:41 47.30219 7.64544 36965 ft 463 kts 234°
2026-05-07 16:41 47.26419 7.56899 36978 ft 463 kts 234°
2026-05-07 16:42 47.22616 7.49274 36989 ft 462 kts 233°
2026-05-07 16:42 47.18815 7.41667 36996 ft 462 kts 234°
2026-05-07 16:43 47.14922 7.34169 36987 ft 462 kts 231°
2026-05-07 16:43 47.10907 7.26740 36982 ft 463 kts 231°
2026-05-07 16:44 47.06924 7.19396 36977 ft 463 kts 231°
2026-05-07 16:44 47.02907 7.12029 36972 ft 463 kts 231°
2026-05-07 16:45 46.98878 7.04657 36999 ft 463 kts 231°
2026-05-07 16:45 46.94827 6.97265 37016 ft 463 kts 231°
2026-05-07 16:46 46.90562 6.90230 37022 ft 464 kts 226°
2026-05-07 16:46 46.85677 6.84104 37032 ft 464 kts 221°
2026-05-07 16:47 46.80682 6.78138 37022 ft 464 kts 220°
2026-05-07 16:47 46.75652 6.72146 37000 ft 464 kts 220°
2026-05-07 16:48 46.70645 6.66211 36973 ft 464 kts 220°
2026-05-07 16:48 46.65651 6.60304 36957 ft 464 kts 220°
2026-05-07 16:49 46.60649 6.54405 36938 ft 464 kts 219°
2026-05-07 16:49 46.55642 6.48515 36927 ft 463 kts 219°
2026-05-07 16:50 46.50600 6.42596 36932 ft 463 kts 219°
2026-05-07 16:50 46.45596 6.36735 36947 ft 463 kts 219°
2026-05-07 16:51 46.40570 6.30867 36956 ft 463 kts 219°
2026-05-07 16:51 46.35564 6.25035 36974 ft 463 kts 219°
2026-05-07 16:52 46.30527 6.19180 36995 ft 464 kts 219°
2026-05-07 16:52 46.25165 6.14091 37004 ft 467 kts 201°
2026-05-07 16:53 46.18864 6.11729 37007 ft 471 kts 189°
2026-05-07 16:53 46.12418 6.10306 36985 ft 471 kts 190°
2026-05-07 16:54 46.05946 6.08884 36947 ft 470 kts 191°
2026-05-07 16:54 45.99456 6.07456 36960 ft 470 kts 191°
2026-05-07 16:55 45.93018 6.06032 36962 ft 469 kts 191°
2026-05-07 16:55 45.86583 6.04628 36962 ft 469 kts 191°
2026-05-07 16:56 45.80118 6.03195 36957 ft 469 kts 191°
2026-05-07 16:56 45.70450 6.01056 36965 ft 468 kts 191°
2026-05-07 16:57 45.64047 5.99644 36965 ft 468 kts 191°
2026-05-07 16:57 45.57577 5.98228 36968 ft 468 kts 191°
2026-05-07 16:58 45.51134 5.96819 36960 ft 468 kts 191°
2026-05-07 16:58 45.44769 5.95132 36929 ft 465 kts 196°
2026-05-07 16:59 45.38442 5.93173 36937 ft 465 kts 196°
2026-05-07 16:59 45.32117 5.91204 36922 ft 465 kts 195°
2026-05-07 17:00 45.25800 5.89233 36918 ft 465 kts 195°
2026-05-07 17:00 45.19498 5.87276 36926 ft 465 kts 195°
2026-05-07 17:01 45.14232 5.85646 36927 ft 464 kts 195°
2026-05-07 17:01 45.07893 5.83684 36944 ft 464 kts 195°
2026-05-07 17:02 45.01593 5.81742 36923 ft 464 kts 195°
2026-05-07 17:02 44.95299 5.79805 36918 ft 463 kts 195°
2026-05-07 17:03 44.89004 5.77869 36899 ft 462 kts 195°
2026-05-07 17:03 44.82749 5.75949 36907 ft 461 kts 195°
2026-05-07 17:04 44.76492 5.74036 36896 ft 461 kts 195°
2026-05-07 17:04 44.70223 5.72121 36889 ft 461 kts 195°
2026-05-07 17:05 44.63948 5.70213 36900 ft 460 kts 195°
2026-05-07 17:05 44.57705 5.68316 36889 ft 460 kts 195°
2026-05-07 17:06 44.51439 5.66423 36899 ft 460 kts 195°
2026-05-07 17:06 44.45189 5.64531 36872 ft 460 kts 195°
2026-05-07 17:07 44.38985 5.62529 36895 ft 457 kts 198°
2026-05-07 17:07 44.33006 5.59585 36894 ft 455 kts 204°
2026-05-07 17:08 44.27111 5.56375 36895 ft 454 kts 205°
2026-05-07 17:08 44.21228 5.53167 36899 ft 453 kts 204°
2026-05-07 17:09 44.15365 5.49972 36884 ft 453 kts 204°
2026-05-07 17:09 44.09505 5.46780 36896 ft 453 kts 204°
2026-05-07 17:10 44.03637 5.43589 36890 ft 452 kts 204°
2026-05-07 17:10 43.97774 5.40411 36885 ft 452 kts 205°
2026-05-07 17:11 43.91925 5.37242 36898 ft 452 kts 204°
2026-05-07 17:11 43.86075 5.34081 36904 ft 451 kts 205°
2026-05-07 17:12 43.80228 5.30928 36925 ft 451 kts 205°
2026-05-07 17:12 43.74361 5.27769 36937 ft 451 kts 205°
2026-05-07 17:13 43.68522 5.24632 36949 ft 450 kts 205°
2026-05-07 17:13 43.62657 5.21488 36961 ft 451 kts 205°
2026-05-07 17:14 43.56814 5.18363 36961 ft 451 kts 205°
2026-05-07 17:14 43.50961 5.15240 36962 ft 451 kts 205°
2026-05-07 17:15 43.45118 5.12128 36961 ft 451 kts 205°
2026-05-07 17:15 43.39377 5.08767 36957 ft 448 kts 210°
2026-05-07 17:16 43.34070 5.04362 36963 ft 445 kts 218°
2026-05-07 17:16 43.28954 4.99562 36941 ft 445 kts 217°
2026-05-07 17:17 43.23843 4.94756 36930 ft 446 kts 217°
2026-05-07 17:17 43.18714 4.89938 36924 ft 445 kts 217°
2026-05-07 17:18 43.13599 4.85147 36925 ft 445 kts 217°
2026-05-07 17:18 43.08476 4.80359 36927 ft 445 kts 217°
2026-05-07 17:19 43.03258 4.75882 36931 ft 448 kts 210°
2026-05-07 17:19 42.97810 4.71744 36926 ft 447 kts 211°
2026-05-07 17:20 42.92376 4.67639 36794 ft 444 kts 212°
2026-05-07 17:20 42.87050 4.63619 36925 ft 438 kts 211°
2026-05-07 17:21 42.81716 4.59595 36951 ft 438 kts 211°
2026-05-07 17:21 42.76381 4.55579 36950 ft 438 kts 211°
2026-05-07 17:22 42.71053 4.51575 36956 ft 438 kts 211°
2026-05-07 17:22 42.65703 4.47562 36955 ft 438 kts 211°
2026-05-07 17:23 42.60368 4.43570 36953 ft 437 kts 211°
2026-05-07 17:23 42.55044 4.39592 36957 ft 437 kts 211°
2026-05-07 17:24 42.49728 4.35629 36954 ft 437 kts 211°
2026-05-07 17:24 42.44408 4.31670 36957 ft 437 kts 211°
2026-05-07 17:25 42.39061 4.27699 36959 ft 437 kts 211°
2026-05-07 17:25 42.33753 4.23764 36959 ft 436 kts 212°
2026-05-07 17:26 42.28487 4.19917 36951 ft 423 kts 210°
2026-05-07 17:26 42.23434 4.16153 36964 ft 412 kts 210°
2026-05-07 17:27 42.18464 4.12456 36962 ft 403 kts 210°
2026-05-07 17:27 42.13585 4.08878 36960 ft 394 kts 210°
2026-05-07 17:28 42.08828 4.05387 36961 ft 386 kts 210°
2026-05-07 17:28 42.04158 4.01967 36962 ft 379 kts 210°
2026-05-07 17:29 41.99571 3.98613 36962 ft 372 kts 210°
2026-05-07 17:29 41.95075 3.95299 36955 ft 365 kts 211°
2026-05-07 17:30 41.90610 3.92173 36966 ft 360 kts 207°
2026-05-07 17:30 41.86183 3.89182 36964 ft 354 kts 207°
2026-05-07 17:31 41.81802 3.86246 36961 ft 348 kts 208°
2026-05-07 17:31 41.77518 3.83369 36960 ft 343 kts 207°
2026-05-07 17:32 41.73268 3.80520 36960 ft 337 kts 207°
2026-05-07 17:32 41.69811 3.78205 36956 ft 333 kts 208°
2026-05-07 17:33 41.65024 3.75005 36957 ft 327 kts 207°
2026-05-07 17:33 41.60995 3.72317 36956 ft 321 kts 207°
2026-05-07 17:34 41.57013 3.69662 36959 ft 316 kts 207°
2026-05-07 17:34 41.53118 3.67067 36957 ft 310 kts 207°
2026-05-07 17:35 41.49295 3.64527 36956 ft 304 kts 208°
2026-05-07 17:35 41.45534 3.62033 36952 ft 298 kts 208°
2026-05-07 17:36 41.43699 3.60816 36950 ft 295 kts 207°
2026-05-07 17:36 41.41862 3.59598 36949 ft 291 kts 208°
2026-05-07 17:36 41.40070 3.58410 36950 ft 288 kts 207°
2026-05-07 17:36 41.38279 3.57228 36950 ft 284 kts 208°
2026-05-07 17:37 41.36521 3.56058 36951 ft 280 kts 207°
2026-05-07 17:37 41.34806 3.54931 36946 ft 276 kts 208°
2026-05-07 17:37 41.33090 3.53792 36847 ft 275 kts 207°
2026-05-07 17:37 41.31376 3.52670 36657 ft 276 kts 207°
2026-05-07 17:38 41.29644 3.51522 36513 ft 277 kts 207°
2026-05-07 17:38 41.27922 3.50379 36485 ft 273 kts 207°
2026-05-07 17:38 41.26226 3.49266 36456 ft 270 kts 207°
2026-05-07 17:38 41.24558 3.48162 36335 ft 270 kts 207°
2026-05-07 17:39 41.22862 3.47056 36164 ft 272 kts 207°
2026-05-07 17:39 41.21169 3.45935 36074 ft 271 kts 207°
2026-05-07 17:39 41.19510 3.44835 36065 ft 267 kts 207°
2026-05-07 17:39 41.17833 3.43765 36003 ft 266 kts 203°
2026-05-07 17:40 41.16104 3.42914 35835 ft 269 kts 201°
2026-05-07 17:40 41.14347 3.42026 35699 ft 269 kts 203°
2026-05-07 17:40 41.12618 3.41108 35683 ft 265 kts 202°
2026-05-07 17:40 41.10925 3.40244 35688 ft 262 kts 202°
2026-05-07 17:41 41.09221 3.39361 35571 ft 262 kts 202°
2026-05-07 17:41 41.07525 3.38494 35409 ft 264 kts 202°
2026-05-07 17:41 41.05813 3.37605 35314 ft 263 kts 202°
2026-05-07 17:41 41.04122 3.36725 35303 ft 260 kts 202°
2026-05-07 17:42 41.02461 3.35873 35270 ft 257 kts 202°
2026-05-07 17:42 41.00782 3.35002 35134 ft 259 kts 202°
2026-05-07 17:42 40.99090 3.34141 34988 ft 260 kts 202°
2026-05-07 17:42 40.97405 3.33268 34936 ft 258 kts 202°
2026-05-07 17:43 40.95758 3.32408 34948 ft 255 kts 202°
2026-05-07 17:43 40.94103 3.31567 34881 ft 254 kts 202°
2026-05-07 17:43 40.92465 3.30721 34730 ft 256 kts 202°
2026-05-07 17:43 40.90782 3.29864 34607 ft 257 kts 202°
2026-05-07 17:44 40.89120 3.29001 34592 ft 254 kts 202°
2026-05-07 17:44 40.87497 3.28159 34592 ft 251 kts 201°
2026-05-07 17:44 40.85860 3.27331 34495 ft 251 kts 201°
2026-05-07 17:44 40.84215 3.26486 34346 ft 254 kts 201°
2026-05-07 17:45 40.82572 3.25647 34268 ft 253 kts 201°
2026-05-07 17:45 40.80950 3.24806 34286 ft 250 kts 202°
2026-05-07 17:45 40.79333 3.23972 34258 ft 248 kts 201°
2026-05-07 17:45 40.77727 3.23164 34127 ft 250 kts 201°
2026-05-07 17:46 40.76640 3.22613 34034 ft 251 kts 201°
2026-05-07 17:46 40.74480 3.21493 33971 ft 249 kts 201°
2026-05-07 17:46 40.73410 3.20943 33995 ft 247 kts 201°
2026-05-07 17:46 40.71281 3.19853 33902 ft 249 kts 197°
2026-05-07 17:47 40.70149 3.19442 33816 ft 260 kts 193°
2026-05-07 17:47 40.68422 3.18661 33938 ft 263 kts 205°
2026-05-07 17:47 40.66802 3.17567 34174 ft 267 kts 204°
2026-05-07 17:47 40.65021 3.16616 34021 ft 286 kts 198°
2026-05-07 17:48 40.63062 3.15657 33501 ft 312 kts 202°
2026-05-07 17:48 40.61006 3.14480 33224 ft 335 kts 204°
2026-05-07 17:48 40.58826 3.13126 33075 ft 354 kts 208°
2026-05-07 17:48 40.56656 3.11494 33035 ft 371 kts 209°
2026-05-07 17:49 40.54338 3.09845 32996 ft 387 kts 208°
2026-05-07 17:49 40.51904 3.08109 32968 ft 403 kts 209°
2026-05-07 17:49 40.49431 3.06321 32952 ft 417 kts 208°
2026-05-07 17:49 40.46825 3.04455 32938 ft 430 kts 209°
2026-05-07 17:50 40.41595 3.00706 32919 ft 427 kts 209°
2026-05-07 17:50 40.36396 2.96987 32930 ft 427 kts 208°
2026-05-07 17:51 40.31162 2.93251 32932 ft 429 kts 209°
2026-05-07 17:51 40.25874 2.89482 32936 ft 430 kts 209°
2026-05-07 17:52 40.20630 2.85752 32936 ft 431 kts 209°
2026-05-07 17:52 40.15472 2.82090 32934 ft 433 kts 209°
2026-05-07 17:53 40.10170 2.78332 32936 ft 433 kts 209°
2026-05-07 17:53 40.04862 2.74576 32949 ft 444 kts 209°
2026-05-07 17:54 39.99398 2.70718 32940 ft 448 kts 209°
2026-05-07 17:54 39.93886 2.66832 32935 ft 448 kts 209°
2026-05-07 17:55 39.88405 2.62976 32937 ft 448 kts 209°
2026-05-07 17:55 39.82922 2.59126 32936 ft 449 kts 209°
2026-05-07 17:56 39.77428 2.55275 32937 ft 449 kts 209°
2026-05-07 17:56 39.71930 2.51427 32942 ft 449 kts 209°
2026-05-07 17:57 39.67370 2.48245 32938 ft 450 kts 209°
2026-05-07 17:57 39.60919 2.43745 32938 ft 451 kts 209°
2026-05-07 17:58 39.55678 2.39330 32940 ft 452 kts 226°
2026-05-07 17:58 39.51866 2.32824 32941 ft 456 kts 237°
2026-05-07 17:59 39.48691 2.25744 32932 ft 457 kts 238°
2026-05-07 17:59 39.45501 2.18615 32929 ft 458 kts 237°
2026-05-07 18:00 39.42281 2.11468 32929 ft 460 kts 237°
2026-05-07 18:00 39.39052 2.04336 32927 ft 461 kts 238°
2026-05-07 18:01 39.35818 1.97209 32924 ft 461 kts 238°
2026-05-07 18:01 39.32561 1.90051 32923 ft 462 kts 238°
2026-05-07 18:02 39.27662 1.79303 32916 ft 463 kts 238°
2026-05-07 18:03 39.24398 1.72170 32911 ft 463 kts 239°
2026-05-07 18:03 39.21125 1.65036 32904 ft 463 kts 239°
2026-05-07 18:04 39.17826 1.57864 32905 ft 463 kts 239°
2026-05-07 18:04 39.14547 1.50743 32915 ft 464 kts 239°
2026-05-07 18:05 39.11418 1.43486 32913 ft 464 kts 242°
2026-05-07 18:05 39.09005 1.35788 32916 ft 465 kts 246°
2026-05-07 18:06 39.06647 1.28005 32921 ft 465 kts 247°
2026-05-07 18:06 39.04287 1.20259 32925 ft 465 kts 248°
2026-05-07 18:07 39.01913 1.12538 32933 ft 465 kts 249°
2026-05-07 18:07 38.99543 1.04822 32941 ft 465 kts 249°
2026-05-07 18:08 38.97163 0.97096 32948 ft 465 kts 249°
2026-05-07 18:08 38.94771 0.89352 32953 ft 464 kts 249°
2026-05-07 18:09 38.92405 0.81714 32928 ft 457 kts 249°
2026-05-07 18:09 38.90082 0.74242 32787 ft 436 kts 250°
2026-05-07 18:09 38.88973 0.70683 32522 ft 419 kts 249°
2026-05-07 18:10 38.87915 0.67277 32287 ft 404 kts 250°
2026-05-07 18:10 38.86897 0.64026 32067 ft 390 kts 250°
2026-05-07 18:10 38.85897 0.60817 31767 ft 378 kts 250°
2026-05-07 18:10 38.84938 0.57754 31465 ft 366 kts 249°
2026-05-07 18:11 38.84003 0.54764 31164 ft 355 kts 250°
2026-05-07 18:11 38.83395 0.52812 30838 ft 352 kts 250°
2026-05-07 18:11 38.82234 0.48927 30164 ft 348 kts 250°
2026-05-07 18:11 38.81460 0.46029 29581 ft 345 kts 256°
2026-05-07 18:12 38.80885 0.43041 28981 ft 342 kts 256°
2026-05-07 18:12 38.80253 0.40099 28387 ft 340 kts 255°
2026-05-07 18:12 38.79651 0.37217 27807 ft 338 kts 255°
2026-05-07 18:12 38.79040 0.34291 27222 ft 337 kts 255°
2026-05-07 18:13 38.78435 0.31410 26660 ft 336 kts 255°
2026-05-07 18:13 38.77822 0.28511 26093 ft 335 kts 255°
2026-05-07 18:13 38.77219 0.25658 25565 ft 334 kts 255°
2026-05-07 18:13 38.76611 0.22772 25016 ft 333 kts 254°
2026-05-07 18:14 38.76006 0.19927 24481 ft 333 kts 254°
2026-05-07 18:14 38.75396 0.17039 23968 ft 333 kts 253°
2026-05-07 18:14 38.74790 0.14199 23447 ft 333 kts 253°
2026-05-07 18:14 38.74183 0.11332 22908 ft 332 kts 253°
2026-05-07 18:15 38.73572 0.08486 22411 ft 329 kts 253°
2026-05-07 18:15 38.72983 0.05695 21932 ft 326 kts 253°
2026-05-07 18:15 38.72379 0.02882 21463 ft 323 kts 253°
2026-05-07 18:15 38.71791 0.00111 20981 ft 321 kts 253°
2026-05-07 18:16 38.71203 -0.02616 20521 ft 318 kts 253°
2026-05-07 18:16 38.70622 -0.05354 20067 ft 316 kts 253°
2026-05-07 18:16 38.70044 -0.08023 19647 ft 314 kts 253°
2026-05-07 18:16 38.69470 -0.10713 19207 ft 311 kts 254°
2026-05-07 18:17 38.68894 -0.13379 18791 ft 309 kts 253°
2026-05-07 18:17 38.68327 -0.16032 18350 ft 307 kts 254°
2026-05-07 18:17 38.67762 -0.18624 17928 ft 304 kts 254°
2026-05-07 18:17 38.67200 -0.21229 17463 ft 302 kts 255°
2026-05-07 18:18 38.66647 -0.23816 17016 ft 299 kts 254°
2026-05-07 18:18 38.66089 -0.26385 16581 ft 297 kts 254°
2026-05-07 18:18 38.65548 -0.28893 16147 ft 295 kts 254°
2026-05-07 18:18 38.64996 -0.31421 15727 ft 293 kts 254°
2026-05-07 18:19 38.64313 -0.33831 15287 ft 292 kts 238°
2026-05-07 18:19 38.62893 -0.35641 14867 ft 293 kts 211°
2026-05-07 18:19 38.60943 -0.36415 14452 ft 296 kts 185°
2026-05-07 18:19 38.58876 -0.36384 14058 ft 295 kts 181°
2026-05-07 18:20 38.56846 -0.36402 13746 ft 290 kts 185°
2026-05-07 18:20 38.54876 -0.36574 13753 ft 274 kts 187°
2026-05-07 18:20 38.53052 -0.36857 13720 ft 260 kts 191°
2026-05-07 18:20 38.51296 -0.37223 13697 ft 248 kts 192°
2026-05-07 18:21 38.49632 -0.37608 13648 ft 236 kts 193°
2026-05-07 18:21 38.48068 -0.37974 13531 ft 224 kts 193°
2026-05-07 18:21 38.46579 -0.38371 13370 ft 213 kts 195°
2026-05-07 18:21 38.45156 -0.38784 13173 ft 206 kts 195°
2026-05-07 18:22 38.43770 -0.39262 12795 ft 206 kts 202°
2026-05-07 18:22 38.42872 -0.39694 12508 ft 209 kts 204°
2026-05-07 18:22 38.41079 -0.40545 12129 ft 205 kts 201°
2026-05-07 18:22 38.39728 -0.41143 11829 ft 203 kts 202°
2026-05-07 18:23 38.38409 -0.41752 11450 ft 206 kts 202°
2026-05-07 18:23 38.37045 -0.42364 11143 ft 204 kts 201°
2026-05-07 18:23 38.35724 -0.42958 10889 ft 201 kts 202°
2026-05-07 18:23 38.34401 -0.43564 10557 ft 202 kts 201°
2026-05-07 18:24 38.33082 -0.44152 10227 ft 203 kts 201°
2026-05-07 18:24 38.31765 -0.44812 9951 ft 200 kts 206°
2026-05-07 18:24 38.30559 -0.45646 9632 ft 198 kts 218°
2026-05-07 18:24 38.29468 -0.46741 9265 ft 199 kts 224°
2026-05-07 18:25 38.28491 -0.47989 8959 ft 196 kts 235°
2026-05-07 18:25 38.27767 -0.49437 8616 ft 196 kts 243°
2026-05-07 18:25 38.27171 -0.50992 8332 ft 193 kts 253°
2026-05-07 18:25 38.26855 -0.52661 7980 ft 194 kts 262°
2026-05-07 18:26 38.26687 -0.54336 7707 ft 191 kts 270°
2026-05-07 18:26 38.26821 -0.56020 7341 ft 193 kts 287°
2026-05-07 18:26 38.27198 -0.57648 7060 ft 191 kts 288°
2026-05-07 18:26 38.27573 -0.59255 6846 ft 186 kts 290°
2026-05-07 18:27 38.28053 -0.60776 6490 ft 190 kts 297°
2026-05-07 18:27 38.28608 -0.62313 6165 ft 191 kts 295°
2026-05-07 18:27 38.29299 -0.63757 5714 ft 195 kts 323°
2026-05-07 18:27 38.30107 -0.64303 5282 ft 203 kts 352°
2026-05-07 18:28 38.31915 -0.64129 5107 ft 185 kts
2026-05-07 18:28 38.33141 -0.64662 4470 ft 204 kts 318°
2026-05-07 18:28 38.33822 -0.66316 3981 ft 215 kts 276°
2026-05-07 18:28 38.33613 -0.68035 4233 ft 184 kts 252°
2026-05-07 18:29 38.33256 -0.69590 3918 ft 186 kts 257°
2026-05-07 18:29 38.32952 -0.71265 3465 ft 197 kts 262°
2026-05-07 18:29 38.32944 -0.72959 3325 ft 187 kts 280°
2026-05-07 18:29 38.33150 -0.74537 3154 ft 181 kts 283°
2026-05-07 18:30 38.33443 -0.76135 2746 ft 188 kts 287°
2026-05-07 18:30 38.33799 -0.77715 2600 ft 181 kts 289°
2026-05-07 18:30 38.34220 -0.79190 2407 ft 175 kts 296°
2026-05-07 18:30 38.34741 -0.80607 2002 ft 183 kts 296°
2026-05-07 18:31 38.35240 -0.82090 1823 ft 176 kts 293°
2026-05-07 18:31 38.35703 -0.83506 1765 ft 173 kts 294°
2026-05-07 18:31 38.36175 -0.84922 1772 ft 172 kts 293°
2026-05-07 18:31 38.36649 -0.86329 1984 ft 170 kts 294°
2026-05-07 18:32 38.36895 -0.87278 2105 ft 173 kts 277°
2026-05-07 18:32 38.36240 -0.89293 1884 ft 210 kts 213°
2026-05-07 18:32 38.35407 -0.89729 2613 ft 177 kts 184°
2026-05-07 18:32 38.34301 -0.89522 2894 ft 166 kts 148°
2026-05-07 18:33 38.33123 -0.87861 2607 ft 197 kts 116°
2026-05-07 18:33 38.32725 -0.86856 2941 ft 177 kts 114°
2026-05-07 18:33 38.32300 -0.85446 2766 ft 173 kts 99°
2026-05-07 18:33 38.32041 -0.83307 2406 ft 189 kts 96°
2026-05-07 18:34 38.31920 -0.82181 2260 ft 197 kts 96°
2026-05-07 18:34 38.31725 -0.80396 2044 ft 207 kts 97°
2026-05-07 18:34 38.31471 -0.78584 1962 ft 206 kts 101°
2026-05-07 18:34 38.31156 -0.76920 1986 ft 183 kts 103°
2026-05-07 18:35 38.30867 -0.75370 1681 ft 176 kts 98°
2026-05-07 18:35 38.30668 -0.73830 1368 ft 176 kts 99°
2026-05-07 18:35 38.30479 -0.72302 1376 ft 174 kts 95°
2026-05-07 18:35 38.30338 -0.70704 1200 ft 190 kts 96°
2026-05-07 18:36 38.30140 -0.69024 1175 ft 195 kts 99°
2026-05-07 18:36 38.29925 -0.67383 1471 ft 173 kts 97°
2026-05-07 18:36 38.29713 -0.66056 1876 ft 139 kts 102°
2026-05-07 18:36 38.29446 -0.64830 1361 ft 158 kts 102°
2026-05-07 18:37 38.29133 -0.63408 984 ft 165 kts 105°
2026-05-07 18:37 38.28917 -0.62042 869 ft 153 kts 87°
2026-05-07 18:37 38.29034 -0.60664 547 ft 164 kts 79°
2026-05-07 18:37 38.29040 -0.59258 760 ft 156 kts 95°
2026-05-07 18:38 38.28881 -0.57831 571 ft 156 kts 99°
2026-05-07 18:38 38.28708 -0.56521 526 ft 153 kts 99°
2026-05-07 18:38 38.28392 -0.55197 439 ft 154 kts 105°
2026-05-07 18:38 38.28553 -0.53772 349 ft 184 kts 52°
2026-05-07 18:39 38.29636 -0.53077 983 ft 181 kts 356°
2026-05-07 18:39 38.30815 -0.53742 1442 ft 202 kts 312°
2026-05-07 18:39 38.31449 -0.55206 2296 ft 181 kts 294°
2026-05-07 18:39 38.31920 -0.56742 2569 ft 188 kts 293°
2026-05-07 18:40 38.32360 -0.58310 2930 ft 192 kts 291°
2026-05-07 18:40 38.32807 -0.59999 2959 ft 212 kts 288°
2026-05-07 18:40 38.33177 -0.61892 3042 ft 221 kts 285°
2026-05-07 18:40 38.33539 -0.63749 3202 ft 216 kts 285°
2026-05-07 18:41 38.33814 -0.65654 3164 ft 217 kts 273°
2026-05-07 18:41 38.33186 -0.67309 2452 ft 232 kts 212°
2026-05-07 18:41 38.31478 -0.67653 1305 ft 263 kts 166°
2026-05-07 18:41 38.30018 -0.66561 1038 ft 224 kts 135°
2026-05-07 18:42 38.29301 -0.65021 706 ft 190 kts 94°
2026-05-07 18:42 38.29365 -0.63414 426 ft 166 kts 83°
2026-05-07 18:42 38.29356 -0.62349 334 ft 0 kts 95°